Regional Weather Roundup
Issued by NWS

Home | Current Version | Previous Version | Text Only | Print | Product List | Glossary On
Versions: 1 2 3 4 5 6 7 8 9 10 11 12 13 14 15 16 17 18 19 20 21 22 23 24 25 26 27 28 29 30 31 32 33 34 35 36 37 38 39 40 41 42 43 44 45 46 47 48 49 50
000
ASUS43 KLOT 240103
RWRIL

ILLINOIS REGIONAL WEATHER ROUNDUP
NATIONAL WEATHER SERVICE CHICAGO/ROMEOVILLE IL
800 PM CDT FRI JUN 23 2017

NOTE: "FAIR" INDICATES FEW OR NO CLOUDS BELOW 12,000 FEET WITH NO
SIGNIFICANT WEATHER AND/OR OBSTRUCTIONS TO VISIBILITY.

* THESE STATIONS ARE NOT UNDER NWS QUALITY CONTROL. THEY ALSO MAY NOT
  REPORT WEATHER SUCH AS PRECIPITATION OR FOG.

ILZ001-002-007-009-015-016-024-240200-
NORTHWEST ILLINOIS

CITY           SKY/WX    TMP DP  RH WIND       PRES   REMARKS
MOLINE         CLEAR     73  53  49 NW14G22   29.85R
SAVANNA*       PTCLDY    71  55  56 W16G22    29.84R
$$

ILZ003-004-008-010-011-017-018-240200-
NORTH CENTRAL ILLINOIS

CITY           SKY/WX    TMP DP  RH WIND       PRES   REMARKS
ROCKFORD       PTCLDY    72  54  53 NW16      29.79R
FREEPORT*      CLEAR     69  53  57 W13G21    29.83R
ROCHELLE*      PTCLDY    70  55  57 NW10      29.80R
DE KALB*       PTCLDY    71  56  59 NW15G21   29.79R
PERU*          CLEAR     70  54  56 NW13G20   29.81R
$$

ILZ005-006-012>014-019>023-240200-
NORTHEAST ILLINOIS

CITY           SKY/WX    TMP DP  RH WIND       PRES   REMARKS
CHICAGO-OHARE  PTCLDY    76  51  41 NW17G29   29.74R
CHICAGO-MIDWAY CLOUDY    79  54  41 NW20      29.73R
AURORA         CLEAR     72  57  59 NW15G24   29.77R
LANSING*       PTCLDY    76  52  43 W8        29.74R
JOLIET*        PTCLDY    77  56  47 W8        29.76R
WAUKEGAN       PTCLDY    74  55  51 NW8G16    29.73R
DUPAGE AIRPORT CLEAR     73  56  54 NW13G23   29.75R
WHEELING       PTCLDY    75  52  44 NW13G22   29.74R
MORRIS*        CLOUDY    73  57  56 NW14G24   29.76R
ROMEOVILLE*    MOCLDY    75  50  41 NW17G25   29.76R
NORTHERLY ISL    N/A     77  49  37 W15         N/A
$$

LMZ740>746-240200-
SOUTHERN LAKE MICHIGAN

STATION/POSITION SKY/WX   TEMP    WIND        PRES    VSBY  WAVE
                          AIR SEA DIR/SP/G                  HT/PER
                          (F)     (DEG/KT/KT) (MB)    (MI)  (FT/S)
SOUTHERN BUOY              66 63  210/ 10/ 12 1005.3          0
WILMETTE HARBOR            72 66  300/ 14/ 19   N/A           1/ 3
HARRISON CRIB              77     290/ 18/ 21   N/A
BURNHAM HARBOR             77                   N/A
CALUMET HARBOR             78     250/  5/ 12 1006.0S
BURNS HARBOR               75     240/  4/  4 1007.1R
MICHIGAN CITY              73     220/  5/  5   N/A
MICHIGAN CITY 6N           71 70  220/  4/  6   N/A           1
ST. JOSEPH                 69 69  240/  4/  6 1005.9R         1
$$

ILZ025>027-034>036-040-047-049-050-058-095>099-240200-
WEST-CENTRAL ILLINOIS

CITY           SKY/WX    TMP DP  RH WIND       PRES   REMARKS
QUINCY         CLEAR     74  54  49 NW13      29.89R
GALESBURG*     CLEAR     71  55  56 NW13      29.88R
MACOMB*        CLEAR     72  54  52 NW10      29.90R
JACKSONVILLE*  CLOUDY    77  53  43 NW15G22   29.85R
PITTSFIELD*    CLEAR     77  56  47 NW12      29.88R
$$

ILZ028>032-037-038-041>044-048-051>054-059>061-240200-
CENTRAL ILLINOIS

CITY           SKY/WX    TMP DP  RH WIND       PRES   REMARKS
PONTIAC        MOCLDY    74  59  58 NW20G28   29.80R
BLOOMINGTON    CLOUDY    76  56  49 NW24G31   29.82R
DECATUR        PTCLDY    77  55  46 W8        29.81R
PEORIA         CLOUDY    74  55  51 NW8G18    29.84R
LACON*         CLEAR     72  55  55 NW10G17   29.81R
LINCOLN*       CLOUDY    79  56  45 NW13      29.82R
SPRINGFIELD    PTCLDY    81  55  40 NW14G20   29.83R HX  81
TAYLORVILLE    PTCLDY    76  58  54 W6        29.83R
$$

ILZ033-039-045-046-055>057-062-063-240200-
EAST-CENTRAL ILLINOIS

CITY           SKY/WX    TMP DP  RH WIND       PRES   REMARKS
CHAMPAIGN      CLEAR     73  56  54 W6        29.81R
RANTOUL*       CLOUDY    74  62  66 W5        29.79R
MATTOON        MOCLDY    72  62  71 NW6       29.80R
PARIS*         MOCLDY    73  63  70 NW5       29.81R
$$

ILZ079-100>102-240200-
SOUTHWEST ILLINOIS

CITY           SKY/WX    TMP DP  RH WIND       PRES   REMARKS
ALTON          MOCLDY    73  63  68 W7        29.85R
BELLEVILLE     CLOUDY    75  59  57 NW6       29.85R
CAHOKIA*       MOCLDY    80  52  37 NW10      29.84R HX  80
SPARTA*        CLOUDY    76  58  52 NW5       29.86R
$$

ILZ064>066-069>071-074>076-080>082-084>086-088>090-092>094-240200-
SOUTH-CENTRAL ILLINOIS

CITY           SKY/WX    TMP DP  RH WIND       PRES   REMARKS
CARBONDALE     CLOUDY    74  66  76 NW3       29.84R
CAIRO*         CLOUDY    78  65  65 NW6       29.85R HX  80
EFFINGHAM*     CLOUDY    75  60  58 NW6       29.83R
MARION         CLOUDY    75  66  73 NW3       29.84R
MT. VERNON     CLOUDY    72  64  76 CALM      29.83R
CENTRALIA*     CLOUDY    75  63  64 NW5       29.83R
SALEM*         CLOUDY    75  63  65 NW3       29.83R
METROPOLIS*    CLOUDY    76  73  93 W3        29.85R
$$

ILZ067-068-072-073-078-083-087-091-240200-
SOUTHEAST ILLINOIS

CITY           SKY/WX    TMP DP  RH WIND       PRES   REMARKS
LAWRENCEVILLE  CLOUDY    74  70  87 NW3       29.80R
FLORA*         CLOUDY    76  64  65 NW6       29.83R
FAIRFIELD*     CLOUDY    75  64  67 CALM      29.81R
HARRISBURG*    CLOUDY    77  70  79 NW7       29.83R
ROBINSON*      CLOUDY    73  66  78 NW5       29.80R
CARMI*         CLOUDY    76  70  82 NW8       29.81R
$$

ABBREVIATIONS USED IN REMARKS
   TC - TEMPERATURE IN CELSIUS
  WCI - WIND CHILL INDEX
   HX - HEAT INDEX
  VSB - VISIBILITY
$$





USA.gov is the U.S. government's official web portal to all federal, state and local government web resources and services.